Date,Output(kWh),Demand(kWh),Import(kWh),Export(kWh),HW(kWh),HWPV(kWh),Output(kWh/d),Demand(kWh/d),Import(kWh/d),Export(kWh/d),HW(kWh/d),HWPV(kWh/d)
17/03/2014,0.1,0,0,0.1,0,0,,,,,,
18/03/2014,3,7.5,5,0.5,1.6,1.5,2.9,7.5,5,0.4,1.5,1.4
19/03/2014,9.9,17.6,9.4,1.7,4.4,4.2,6.9,10.1,4.4,1.2,2.9,2.8
20/03/2014,17.9,26.3,13.8,5.4,7,6.7,8,8.7,4.4,3.7,2.6,2.5
21/03/2014,23.7,35.6,19.5,7.5,9.5,9.1,5.8,9.3,5.7,2.1,2.4,2.4
22/03/2014,35.4,45.4,24.9,14.9,12,11.5,11.7,9.8,5.5,7.3,2.6,2.3
23/03/2014,49.2,53.8,27.6,23,14.9,14.2,13.7,8.3,2.7,8.1,2.9,2.7
24/03/2014,58.2,67.7,34.7,25.2,18.4,17.5,9.1,13.9,7.1,2.2,3.6,3.3
25/03/2014,71.7,77.8,39.2,33.2,21,19.9,13.4,10.1,4.5,7.9,2.5,2.4
26/03/2014,75.1,87.4,46.2,33.9,22.7,21.6,3.5,9.7,7,0.7,1.7,1.7
27/03/2014,81.3,97.8,51.3,34.6,25.5,24.4,6.2,10.4,5.1,0.8,2.8,2.7
28/03/2014,88.7,108,56.3,36.8,28.9,27.7,7.4,10.2,5.1,2.2,3.5,3.3
29/03/2014,96.3,124.8,67.2,38.5,31,29.7,7.6,16.8,10.9,1.7,2,2
30/03/2014,113.3,135.7,71,48.3,34.4,33,17,10.9,3.8,9.8,3.4,3.3
31/03/2014,124.4,150.1,76.9,50.9,38.5,37,11.1,14.4,5.9,2.6,4.2,4
01/04/2014,132,157.2,79.9,54.3,41.1,39.5,7.5,7.1,2.9,3.4,2.6,2.5
02/04/2014,141.6,168,85.1,58.4,43.8,42.1,9.7,10.8,5.2,4.1,2.7,2.6
03/04/2014,147.8,178.1,89.9,59.3,46.9,45.3,6.2,10.1,4.8,0.8,3.2,3.2
04/04/2014,153.3,188.5,96.1,60.5,50,48.3,5.6,10.4,6.1,1.3,3,3
05/04/2014,160.6,198.2,100.9,62.9,52.7,51,7.3,9.7,4.8,2.4,2.8,2.7
06/04/2014,166.3,205.5,103.6,64.1,55.6,53.8,5.6,7.3,2.8,1.1,2.8,2.8
07/04/2014,169.3,214.6,110.4,64.7,56.9,55.1,3,9.1,6.8,0.7,1.3,1.3
08/04/2014,171.3,222.6,117,65.4,57.6,55.8,2,8,6.6,0.6,0.7,0.7
09/04/2014,184.6,235.4,122,70.8,61,58.9,13.3,12.8,5,5.5,3.4,3.2
10/04/2014,199.5,243.9,124.9,80.1,64.6,62.5,14.9,8.6,2.9,9.2,3.7,3.6
11/04/2014,215.4,255.3,129.2,88.9,67.5,65.4,15.9,11.4,4.3,8.8,2.9,2.9
12/04/2014,227.2,267.6,133.7,92.9,72.1,69.8,11.8,12.3,4.6,4,4.5,4.4
13/04/2014,237.8,280.6,138.3,95.2,76.5,74.1,10.6,12.9,4.6,2.3,4.4,4.4
14/04/2014,258.3,292.6,142.5,107.8,79.9,77.5,20.5,12,4.2,12.7,3.5,3.4
15/04/2014,276.6,303.5,145.1,117.8,85,82.6,18.4,10.9,2.6,10,5.1,5.1
16/04/2014,298,315.7,148.9,130.7,90.1,87.7,21.4,12.3,3.8,12.9,5.1,5.1
17/04/2014,319.2,326.6,150.9,143,94,91.6,21.2,10.9,2,12.3,3.9,3.9
18/04/2014,331.8,338.1,153.9,147.1,98.3,95.8,12.6,11.5,3.1,4.1,4.3,4.2
19/04/2014,349.4,348.8,157.6,157.5,101.6,99,17.6,10.8,3.6,10.4,3.3,3.2
20/04/2014,361.3,362.1,162.5,161.1,106.1,103.4,11.9,13.3,4.9,3.5,4.5,4.4
21/04/2014,363,363.2,162.8,161.8,107.3,104.5,1.7,1.1,0.3,0.8,1.2,1.1
22/04/2014,375.6,368.6,163.2,169.5,111.3,108.5,12.7,5.4,0.4,7.7,4,4
23/04/2014,382.9,388.1,176,170.1,112.9,110.1,7.3,19.5,12.8,0.6,1.6,1.6
24/04/2014,392.3,400.4,181.7,172.7,116,113.1,9.4,12.4,5.7,2.7,3.1,3
25/04/2014,406.8,412.1,186.6,180.3,119,115.9,14.5,11.7,4.8,7.6,2.9,2.8
26/04/2014,407.8,416.2,190.2,180.8,119.3,116.3,1,4.1,3.6,0.4,0.4,0.4
27/04/2014,421.9,430.8,195.7,185.8,123.4,120,14.2,14.6,5.5,5,4.1,3.7
28/04/2014,429.1,443.6,202.2,186.7,126.4,123,7.2,12.7,6.5,1,3,2.9
29/04/2014,435,458,211.5,187.5,128.9,125.5,5.9,14.4,9.3,0.8,2.5,2.5
30/04/2014,440.1,468.8,218.2,188.4,130.9,127.5,5.1,10.8,6.7,0.9,2,2
01/05/2014,457.4,477.7,219.8,198.4,133.7,130.2,17.4,8.9,1.6,10,2.8,2.8
02/05/2014,461.6,488.2,226.9,199.2,135.2,131.6,4.2,10.5,7.2,0.8,1.4,1.4
03/05/2014,466.5,496,230.8,200.1,137.5,133.9,4.9,7.8,3.9,1,2.3,2.3
04/05/2014,489.3,508.7,235.1,214.4,141.3,137.6,22.8,12.7,4.2,14.3,3.8,3.7
05/05/2014,509.1,514,235.8,229.6,144.1,140.4,19.8,5.3,0.7,15.2,2.8,2.8
06/05/2014,525.3,525.9,238.3,236.3,148.2,144.4,16.2,11.9,2.5,6.7,4.1,4
07/05/2014,542.4,536.7,241.7,246,151.1,147.1,17.1,10.8,3.4,9.8,2.9,2.7
08/05/2014,554.6,550.6,248.1,250.6,154.6,150.6,12.2,13.9,6.3,4.5,3.5,3.4
09/05/2014,559.2,560.3,254.1,251.5,156.3,152.2,4.6,9.6,6,0.9,1.7,1.6
10/05/2014,579.1,569.6,256.7,264.6,159.3,155.1,19.9,9.3,2.6,13.2,3,2.9
11/05/2014,590.7,580.1,259.5,268.6,163.6,159.2,11.6,10.5,2.8,3.9,4.3,4.1
12/05/2014,598.8,595.3,267.8,269.7,166.8,162.2,8.1,15.2,8.3,1.2,3.2,3
13/05/2014,617.7,608.4,271.5,279.3,171.9,167.1,18.9,13.1,3.8,9.6,5,4.8
14/05/2014,630,621.4,276.6,283.6,176.8,171.9,12.3,13.1,5.1,4.3,4.9,4.8
15/05/2014,651.1,630.6,277.9,296.9,181.7,176.7,21.1,9.2,1.3,13.3,4.9,4.8
16/05/2014,669.5,642.6,280.7,306.2,186.6,181.5,18.4,12,2.8,9.3,4.9,4.7
17/05/2014,686.2,653.7,283.2,314.3,191.3,186,16.7,11.1,2.5,8.1,4.6,4.5
18/05/2014,697.7,663.2,285.9,319.1,195.3,190,11.5,9.5,2.7,4.8,4.1,4
19/05/2014,718.2,674.1,288.2,331.1,199.5,194.1,20.5,10.9,2.3,12,4.1,4.1
20/05/2014,737.9,687.8,291.7,340.5,203.7,198.2,19.7,13.7,3.4,9.4,4.2,4.1
21/05/2014,744.8,699.1,297.1,341.8,206.7,201.2,7,11.3,5.4,1.3,3,3
22/05/2014,759.2,708.1,299.5,349.7,210.2,204.6,14.3,9,2.5,7.9,3.5,3.4
23/05/2014,769,717.8,303.6,354.1,213.9,208.1,9.9,9.7,4,4.3,3.7,3.5
24/05/2014,774.6,728.1,309.1,354.9,216.2,210.5,5.6,10.3,5.5,0.9,2.4,2.3
25/05/2014,784.6,738.4,312.3,357.9,220,214.2,10,10.3,3.2,3,3.8,3.7
26/05/2014,804.2,755.4,317.6,366,225.1,219,19.6,16.9,5.3,8,5,4.8
27/05/2014,806.7,758.4,318.9,367,226.6,220.5,2.5,3,1.3,1.1,1.6,1.6
28/05/2014,810.2,770.1,328,368,227.6,221.5,3.5,11.7,9.1,1,1,1
29/05/2014,812.7,775.2,331.2,368.8,228.9,222.8,2.5,5.1,3.2,0.8,1.3,1.3
30/05/2014,820.9,792.5,341.2,369.9,231.6,225.4,8.2,17.3,10,1.1,2.7,2.6
31/05/2014,826,800.4,345.1,371,234.1,227.9,5.1,7.9,3.9,1.1,2.4,2.4
01/06/2014,838.3,810.9,348.6,376.5,237.6,231.4,12.3,10.5,3.5,5.4,3.6,3.5
02/06/2014,855.5,821.2,352.1,387,241,234.7,17.2,10.3,3.5,10.5,3.4,3.3
03/06/2014,865.2,832.5,357.7,390.9,244,237.7,9.7,11.3,5.6,3.9,3,3
04/06/2014,877.3,841.7,360.2,396.4,247.3,240.8,12.1,9.2,2.5,5.5,3.3,3.2
05/06/2014,885.4,851.7,363.5,397.9,251.3,244.7,8.2,10.1,3.3,1.5,4,3.9
06/06/2014,902.9,864,367.5,407.2,256,249.2,17.4,12.2,4.1,9.3,4.7,4.5
07/06/2014,924.1,873.8,369.2,420.3,260.5,253.6,21.2,9.8,1.7,13.1,4.5,4.4
08/06/2014,936.7,886.3,372.3,423.6,265.6,258.6,12.7,12.5,3.1,3.3,5.1,4.9
09/06/2014,957.4,898.4,373.9,433.9,270.5,263.4,20.7,12.1,1.6,10.3,4.9,4.8
10/06/2014,972.9,909.8,378.9,443,274.5,267.3,15.5,11.4,4.9,9.1,4,3.9
11/06/2014,995.5,921.6,381.9,456.9,279.2,271.9,22.6,11.8,3,13.9,4.7,4.6
12/06/2014,1013,931.1,385.3,468.5,281.6,274,17.5,9.5,3.4,11.6,2.4,2.1
13/06/2014,1034,941.4,387.5,481.2,285,277.3,21,10.4,2.3,12.7,3.4,3.3
14/06/2014,1054,949.6,389.5,495,288.2,280.5,20,8.2,2,13.7,3.3,3.2
15/06/2014,1067,961.8,393.8,500.2,292.2,284.3,13,12.1,4.3,5.3,4,3.8
16/06/2014,1074,973.3,399.8,501.5,295,287,7,11.5,5.9,1.3,2.8,2.7
17/06/2014,1082,985.2,405.5,503.6,298.1,290,8,12,5.7,2,3.1,3
18/06/2014,1103,996.7,408.9,516.3,302.5,294.4,21,11.5,3.4,12.7,4.4,4.3
19/06/2014,1117,1009,413.6,523.7,306.6,298.3,14,12.3,4.7,7.4,4.1,3.9
20/06/2014,1128,1019,416.6,527.9,310.8,302.4,11,10,3,4.2,4.3,4.2
21/06/2014,1145,1030,420.7,537.5,313.5,305.1,17,11,4.1,9.6,2.7,2.6
22/06/2014,1165,1042,422.7,547.7,318.5,310,20,12,2,10.2,5,5
23/06/2014,1178,1053,426.2,554.1,322,313.4,13,11,3.5,6.3,3.5,3.4
24/06/2014,1194,1062,429.9,564,324.9,316.3,16,9,3.7,9.9,2.9,2.9
25/06/2014,1212,1071,431.7,573.9,329.5,320.8,18,9,1.7,9.9,4.6,4.5
26/06/2014,1231,1083,435.2,585.4,333.5,324.7,19,12,3.5,11.5,4,3.9
27/06/2014,1247,1094,439.3,595.1,336.8,328,16,11,4.2,9.7,3.3,3.3
28/06/2014,1262,1103,441.8,603.4,339.7,330.8,15,9,2.4,8.3,2.9,2.8
29/06/2014,1269,1112,445.5,605.6,342.6,333.7,7,9,3.8,2.2,2.9,2.9
30/06/2014,1285,1123,448.1,612.4,347.8,338.8,16,11,2.6,6.8,5.2,5.1
01/07/2014,1297,1130,449.9,619.5,351.7,342.7,12,7,1.8,7.1,3.9,3.9
02/07/2014,1312,1143,453.7,626.8,356.3,347.2,15,13,3.8,7.3,4.6,4.6
03/07/2014,1332,1152,455.6,639.4,359.7,350.5,20,9,1.9,12.7,3.4,3.3
04/07/2014,1354,1162,458.2,654.5,363.2,354,22,10,2.6,15.1,3.5,3.4
05/07/2014,1375,1174,461.3,666.6,367.7,358.3,21,12,3.1,12.1,4.4,4.3
06/07/2014,1383,1183,464.8,669.1,371.3,361.9,8,9,3.5,2.5,3.7,3.6
07/07/2014,1397,1192,467,676.6,374.2,364.7,14,9,2.1,7.4,2.9,2.8
08/07/2014,1409,1200,469.6,682.7,378.1,368.5,12,8,2.7,6.1,3.9,3.8
09/07/2014,1420,1210,473.3,687.5,381.5,371.9,11,10,3.7,4.8,3.4,3.4
10/07/2014,1433,1222,478,693.2,385.5,375.5,13,12,4.7,5.8,4,3.7
11/07/2014,1450,1234,481,701.3,390.4,380.3,17,12,3,8,4.9,4.8
12/07/2014,1456,1243,485.3,702.6,393.1,383,6,9,4.3,1.4,2.7,2.7
13/07/2014,1471,1248,485.6,713.7,395.9,385.8,15,5,0.3,11.1,2.8,2.7
14/07/2014,1483,1254,487,722.3,398.3,388.2,12,6,1.4,8.6,2.5,2.4
15/07/2014,1502,1266,490.9,732.3,402.4,392.1,19,12,3.9,9.9,4.1,3.9
16/07/2014,1519,1275,493.5,743.1,406.6,396.1,17,9,2.5,10.8,4.2,4
17/07/2014,1534,1286,497.8,751,410.9,400.2,15,11,4.4,7.9,4.3,4.2
18/07/2014,1553,1298,501.3,761.3,414.9,404.2,19,12,3.4,10.4,4,4
19/07/2014,1574,1308,503.9,774.7,417.2,406.5,21,10,2.6,13.4,2.3,2.3
20/07/2014,1585,1318,506.6,778.4,422,411.3,11,10,2.7,3.6,4.8,4.8
21/07/2014,1594,1329,509.7,779.9,426.8,416,9,11,3.1,1.5,4.8,4.7
22/07/2014,1610,1339,512.3,788.1,430.3,419.5,16,10,2.6,8.3,3.5,3.4
23/07/2014,1630,1351,515,799.1,435.4,424.6,20,12,2.6,11,5.1,5.1
24/07/2014,1649,1360,518.2,812.1,437.8,426.8,19,9,3.3,13,2.4,2.3
25/07/2014,1668,1369,520.1,824.4,442.5,431.5,19,9,1.9,12.3,4.7,4.7
26/07/2014,1680,1377,522.2,830.2,446.2,435.2,12,8,2.1,5.8,3.7,3.7
27/07/2014,1697,1385,523.6,840.7,449.5,438.4,17,8,1.4,10.5,3.3,3.2
28/07/2014,1713,1391,524.5,851,451.5,440.4,16,6,0.9,10.3,2,2
29/07/2014,1724,1395,524.9,859.2,454.5,443.3,11,4,0.4,8.3,2.9,2.9
30/07/2014,1743,1402,526.5,873.2,457.8,446.7,19,7,1.6,13.9,3.4,3.4
31/07/2014,1762,1416,530.4,881.9,462.5,451.3,19,14,3.9,8.7,4.7,4.6
01/08/2014,1778,1428,533.9,889.1,466.9,455.5,16,12,3.5,7.2,4.3,4.3
02/08/2014,1790,1439,537.3,893.5,471.8,460.3,12,11,3.3,4.4,4.9,4.8
03/08/2014,1803,1449,540,899,475.5,463.9,13,10,2.8,5.5,3.7,3.6
04/08/2014,1821,1459,541.7,908.4,480.2,468.6,18,10,1.7,9.4,4.8,4.6
05/08/2014,1837,1470,545.3,917.7,484.2,472.4,16,11,3.6,9.3,4,3.9
06/08/2014,1849,1477,546.7,924.1,488.3,476.5,12,7,1.4,6.5,4.1,4.1
07/08/2014,1866,1489,548.8,930.8,492.6,480.7,17,12,2,6.7,4.3,4.1
08/08/2014,1882,1496,550.8,942.1,496.6,484.7,16,7,2,11.3,4,4
09/08/2014,1891,1505,553,944.8,500.4,488.4,9,9,2.2,2.7,3.8,3.7
10/08/2014,1909,1515,555.6,954.6,503.8,491.6,18,10,2.7,9.9,3.4,3.2
11/08/2014,1918,1525,560.6,958.1,506.4,493.9,9,10,4.9,3.5,2.6,2.3
12/08/2014,1931,1537,564.5,964.1,510.5,497.9,13,12,4,6,4.1,4
13/08/2014,1944,1544,566.8,972,514.5,501.9,13,7,2.3,7.8,4,4
14/08/2014,1962,1557,570.1,980.6,519.6,506.8,18,13,3.3,8.6,5,4.9
15/08/2014,1972,1569,576,984.9,522.6,509.8,10,12,5.9,4.3,3,3
16/08/2014,1980,1576,578.6,987.1,526.3,513.5,8,7,2.6,2.2,3.8,3.7
17/08/2014,1994,1583,579.7,996.4,530,517.1,14,7,1.1,9.3,3.7,3.6
18/08/2014,2006,1588,581,1004,532.7,519.6,12,5,1.3,7.6,2.6,2.6
19/08/2014,2020,1602,584.8,1009,537.7,524.5,14,14,3.8,5,5,4.8
20/08/2014,2033,1613,589.4,1015,541.9,528.5,13,11,4.6,6,4.2,4.1
21/08/2014,2046,1629,596,1019,546.4,532.9,13,16,6.6,4,4.5,4.4
22/08/2014,2056,1637,598.2,1022,549.4,536,10,8,2.2,3,3.1,3
23/08/2014,2068,1653,606.5,1027,553.9,540.2,12,16,8.3,5,4.5,4.3
24/08/2014,2079,1664,610.1,1031,557.4,543.6,11,11,3.6,4,3.5,3.4
25/08/2014,2092,1674,612.2,1035,562.4,548.6,13,10,2.1,4,5.1,5
26/08/2014,2094,1687,623.4,1036,562.9,549.1,2,13,11.2,1,0.5,0.5
27/08/2014,2098,1696,629.5,1037,564.7,550.9,4,9,6,1,1.8,1.8
28/08/2014,2104,1705,634.1,1038,567.3,553.5,6,9,4.7,1,2.6,2.6
29/08/2014,2114,1717,638.5,1041,571.8,557.9,10,12,4.4,3,4.5,4.4
30/08/2014,2124,1727,642.8,1045,574.9,560.9,10,10,4.3,4,3.1,3
31/08/2014,2133,1735,645,1048,578.3,564.2,9,8,2.2,3,3.4,3.3
01/09/2014,2148,1746,649,1057,582.3,568.1,15,11,3.9,9,4,3.9
02/09/2014,2152,1752,652.9,1058,584,569.9,4,6,3.9,1,1.7,1.7
03/09/2014,2167,1764,658.8,1066,587.2,572.9,15,12,5.9,8,3.2,3.1
04/09/2014,2178,1774,661.7,1071,591.3,577,11,10,2.9,5,4.1,4
05/09/2014,2183,1782,666.5,1072,594.4,580,5,8,4.8,1,3.1,3.1
06/09/2014,2188,1792,672.4,1073,595.8,581.5,5,10,5.9,1,1.5,1.5
07/09/2014,2195,1801,675.8,1075,599.8,585.4,7,9,3.4,2,3.9,3.9
08/09/2014,2204,1813,682,1078,603.4,588.8,9,12,6.2,3,3.6,3.4
09/09/2014,2218,1824,684.7,1084,608.3,593.6,14,11,2.7,6,4.9,4.8
10/09/2014,2231,1835,689.9,1091,611.8,597,13,11,5.2,7,3.5,3.4
11/09/2014,2240,1846,694.9,1093,616.3,601.3,9,11,5,2,4.6,4.3
12/09/2014,2245,1855,699.7,1094,618.5,603.4,5,9,4.8,1,2.1,2.1
13/09/2014,2255,1868,705.6,1097,622.5,607.3,10,13,6,3,4,3.8
14/09/2014,2262,1877,711.1,1100,624.6,609.3,7,9,5.5,3,2.1,2.1
15/09/2014,2270,1891,719.2,1103,627.1,611.6,8,14,8.1,3,2.5,2.3
16/09/2014,2280,1902,723.1,1107,630.7,615.3,10,11,3.9,4,3.7,3.6
17/09/2014,2287,1912,728.6,1108,634.5,619,7,10,5.5,1,3.8,3.7
18/09/2014,2292,1921,732.8,1109,637.2,621.7,5,9,4.3,1,2.8,2.8
19/09/2014,2302,1931,738.7,1114,639.3,623.8,10,10,5.8,5,2.1,2
20/09/2014,2307,1943,745.8,1115,641.4,625.8,5,12,7.1,1,2.1,2.1
21/09/2014,2310,1950,750.9,1115,642.3,626.7,3,7,5.1,0,0.9,0.9
22/09/2014,2318,1963,757.2,1117,646,630.3,8,13,6.3,2,3.6,3.6
23/09/2014,2330,1974,761.1,1121,649.6,633.9,12,11,3.9,4,3.7,3.6
24/09/2014,2340,1986,766.9,1125,652.7,636.9,10,12,5.8,4,3,3
25/09/2014,2349,2003,775.8,1126,656.7,640.7,9,17,8.9,1,4,3.8
26/09/2014,2357,2012,780.6,1130,659.2,643.2,8,9,4.8,4,2.5,2.5
27/09/2014,2362,2021,785.9,1131,661.5,645.5,5,9,5.3,1,2.4,2.3
28/09/2014,2370,2028,788,1133,664.3,648.2,8,7,2.1,2,2.8,2.7
29/09/2014,2380,2037,792.3,1139,666.2,650.1,10,9,4.3,6,1.9,1.9
30/09/2014,2384,2046,798.4,1140,667.6,651.5,4,9,6.1,1,1.4,1.4
01/10/2014,2392,2053,802.5,1145,670.3,654.2,8,7,4.1,5,2.7,2.6
02/10/2014,2398,2063,808,1147,672.2,656,6,10,5.5,2,1.9,1.9
03/10/2014,2403,2071,812.7,1149,674.2,658.1,5,8,4.7,2,2.1,2
04/10/2014,2409,2082,819.7,1152,676.4,660.1,6,11,7,3,2.1,2.1
05/10/2014,2410,2085,822.3,1153,677.1,660.9,1,3,2.6,1,0.8,0.7
06/10/2014,2418,2093,825.4,1155,679.8,663.5,8,8,3.1,2,2.7,2.6
07/10/2014,2418,2104,835.5,1156,680,663.6,0,11,10.1,1,0.2,0.2
08/10/2014,2426,2114,841.4,1159,681.6,665.2,8,10,5.8,3,1.6,1.6
09/10/2014,2430,2123,846.7,1160,683.7,667.2,4,9,5.4,1,2,2
10/10/2014,2435,2136,855.4,1161,685.8,669.3,5,13,8.6,1,2.1,2
11/10/2014,2440,2145,860.4,1162,688.8,672.2,5,9,5,1,3,3
12/10/2014,2444,2155,867.4,1163,691,674.4,4,10,7,1,2.2,2.1
13/10/2014,2447,2165,874.7,1164,692.2,675.5,3,10,7.2,1,1.1,1.1
14/10/2014,2447,2177,885.6,1164,692.4,675.6,0,12,11,0,0.2,0
15/10/2014,2447,2183,891.4,1164,692.5,675.7,0,6,5.7,0,0.1,0.1
16/10/2014,2449,2191,898.4,1165,693.3,676.5,2,8,7,1,0.8,0.8
17/10/2014,2454,2199,902.4,1167,695,678.1,5,8,4,2,1.7,1.6
18/10/2014,2458,2209,909.7,1167,696.5,679.6,4,10,7.3,0,1.5,1.5
19/10/2014,2459,2218,917.1,1168,696.9,680,1,9,7.4,1,0.4,0.4
20/10/2014,2462,2224,920.8,1169,699.4,682.5,3,6,3.7,1,2.5,2.5
21/10/2014,2466,2239,932.2,1169,701,684,4,15,11.4,0,1.5,1.5
22/10/2014,2469,2251,940.7,1170,702.5,685.5,3,12,8.5,1,1.5,1.5
23/10/2014,2474,2260,946.4,1172,704,687,5,9,5.7,2,1.5,1.5
24/10/2014,2477,2266,949.9,1172,705.2,688.2,3,6,3.5,0,1.2,1.2
25/10/2014,2478,2274,957.6,1173,705.6,688.6,1,8,7.6,1,0.5,0.4
26/10/2014,2480,2282,963,1174,706.8,689.7,2,8,5.5,1,1.1,1.1
27/10/2014,2482,2287,966.7,1174,707.5,690.5,2,5,3.6,0,0.8,0.7
28/10/2014,2485,2305,981.9,1175,708.7,691.7,3,18,15.3,1,1.2,1.2
29/10/2014,2487,2311,985.6,1175,710.1,693,2,6,3.7,0,1.4,1.4
30/10/2014,2487,2315,989.6,1175,710.5,693.4,0,4,4,0,0.4,0.4
31/10/2014,2490,2323,996.3,1176,711.3,694.2,3,8,6.7,1,0.8,0.8
01/11/2014,2492,2331,1002,1177,712.2,695.2,2,8,5.7,1,1,1
02/11/2014,2495,2340,1008,1177,713,696,3,9,6,0,0.8,0.8
03/11/2014,2496,2346,1013,1178,713.7,696.6,1,6,5,1,0.7,0.6
04/11/2014,2497,2355,1022,1178,713.9,696.8,1,9,9,0,0.2,0.2
05/11/2014,2498,2362,1028,1178,714.8,697.7,1,7,6,0,0.9,0.9
06/11/2014,2500,2373,1037,1179,715.7,698.6,2,11,9,1,0.8,0.8
07/11/2014,2501,2386,1048,1179,716.1,699,1,13,11,0,0.4,0.4
08/11/2014,2503,2392,1054,1180,717.1,700,2,6,6,1,1,1
09/11/2014,2505,2401,1063,1180,717.4,700.3,2,9,9,0,0.3,0.3
10/11/2014,2506,2409,1070,1181,718,700.9,1,8,7,1,0.6,0.6
11/11/2014,2507,2418,1078,1181,718.3,701.2,1,9,8,0,0.3,0.3
12/11/2014,2510,2425,1084,1181,719.1,701.9,3,7,6,0,0.8,0.7
13/11/2014,2511,2433,1092,1182,719.7,702.5,1,8,8,1,0.6,0.6
14/11/2014,2511,2441,1100,1182,720,702.8,0,8,8,0,0.3,0.3
15/11/2014,2513,2448,1108,1182,720.7,703.5,2,7,8,0,0.7,0.7
16/11/2014,2515,2462,1120,1183,721.5,704.4,2,14,12,1,0.8,0.8
17/11/2014,2516,2471,1129,1183,722.1,705,1,9,9,0,0.6,0.6
18/11/2014,2516,2479,1138,1184,722.4,705.3,0,8,9,1,0.3,0.3
19/11/2014,2517,2486,1145,1184,723.1,705.9,1,7,7,0,0.7,0.7
20/11/2014,2519,2492,1151,1185,724,706.9,2,6,6,1,0.9,0.9
21/11/2014,2520,2506,1163,1185,724.6,707.4,1,14,12,0,0.5,0.5
22/11/2014,2520,2514,1172,1185,724.7,707.6,0,8,9,0,0.2,0.1
23/11/2014,2520,2523,1181,1186,724.9,707.7,0,9,9,1,0.1,0.2
24/11/2014,2520,2528,1187,1186,724.9,707.7,0,5,6,0,0,0
25/11/2014,2522,2539,1197,1186,725.5,708.4,2,11,10,0,0.7,0.7
26/11/2014,2522,2547,1206,1186,725.6,708.4,0,8,9,0,0,0
27/11/2014,2522,2557,1216,1186,725.6,708.5,0,10,10,0,0.1,0.1
28/11/2014,2523,2563,1222,1187,726.1,709,1,6,6,1,0.5,0.5
29/11/2014,2523,2573,1232,1187,726.2,709,0,10,10,0,0,0
30/11/2014,2524,2581,1240,1187,726.5,709.4,1,8,8,0,0.4,0.4
01/12/2014,2526,2593,1252,1188,727.1,709.9,2,12,12,1,0.5,0.5
02/12/2014,2526,2605,1264,1188,727.1,709.9,0,12,12,0,0,0
03/12/2014,2526,2613,1272,1188,727.2,710,0,8,8,0,0.1,0.1
04/12/2014,2527,2619,1278,1188,727.7,710.5,1,6,6,0,0.5,0.5
05/12/2014,2527,2628,1288,1188,727.7,710.5,0,9,10,0,0,0
06/12/2014,2527,2637,1296,1189,728.1,710.9,0,9,8,1,0.4,0.4
07/12/2014,2527,2641,1301,1189,728.4,711.2,0,4,5,0,0.3,0.3
08/12/2014,2528,2652,1312,1189,728.5,711.3,1,11,11,0,0.1,0.1
09/12/2014,2528,2660,1320,1190,728.8,711.6,0,8,8,1,0.3,0.3
10/12/2014,2529,2670,1330,1190,729.2,712,1,10,10,0,0.4,0.4
11/12/2014,2529,2675,1335,1190,729.6,712.4,0,5,5,0,0.4,0.4
12/12/2014,2531,2691,1350,1191,729.9,712.7,2,16,15,1,0.3,0.3
13/12/2014,2531,2700,1360,1191,729.9,712.8,0,9,10,0,0,0
14/12/2014,2531,2706,1367,1191,730.1,712.9,0,6,7,0,0.2,0.2
15/12/2014,2533,2716,1377,1191,730.5,713.3,2,10,10,0,0.4,0.4
16/12/2014,2534,2727,1387,1192,730.7,713.5,1,11,10,1,0.2,0.2
17/12/2014,2534,2736,1397,1192,730.9,713.7,0,9,10,0,0.2,0.2
18/12/2014,2535,2744,1404,1192,731.1,713.9,1,8,7,0,0.3,0.3
19/12/2014,2535,2749,1410,1193,731.3,714.1,0,5,6,1,0.1,0.1
20/12/2014,2536,2757,1418,1193,731.6,714.4,1,8,8,0,0.3,0.3
21/12/2014,2536,2763,1425,1193,732.1,714.9,0,6,7,0,0.5,0.5
22/12/2014,2537,2783,1444,1193,732.4,715.1,1,20,19,0,0.3,0.3
23/12/2014,2537,2791,1452,1193,732.4,715.2,0,8,8,0,0,0.1
24/12/2014,2538,2801,1462,1193,732.6,715.4,1,10,10,0,0.2,0.2
25/12/2014,2538,2815,1476,1193,732.8,715.6,0,14,14,0,0.2,0.2
26/12/2014,2539,2824,1485,1193,733.1,715.9,1,9,9,0,0.3,0.3
27/12/2014,2539,2840,1501,1193,733.1,715.9,0,16,16,0,0,0
28/12/2014,2539,2852,1513,1193,733.3,716.1,0,12,12,0,0.2,0.2
29/12/2014,2540,2852,1514,1193,733.9,716.7,1,0,1,0,0.6,0.6
30/12/2014,2540,2862,1523,1193,733.9,716.7,0,10,9,0,0,0
31/12/2014,2541,2873,1533,1193,734.1,716.9,1,11,10,0,0.2,0.2
01/01/2015,2542,2879,1539,1194,734.6,717.4,1,6,6,1,0.5,0.5
02/01/2015,2542,2889,1550,1194,734.6,717.4,0,10,11,0,0,0
03/01/2015,2542,2904,1565,1194,734.8,717.6,0,15,15,0,0.2,0.2
04/01/2015,2543,2910,1571,1194,734.8,717.6,1,6,6,0,0,0
05/01/2015,2543,2920,1581,1194,735,717.7,0,10,10,0,0.2,0.1
06/01/2015,2543,2926,1588,1194,735.3,718.1,0,6,7,0,0.3,0.3
07/01/2015,2543,2935,1597,1194,735.4,718.2,0,9,9,0,0.1,0.1
08/01/2015,2544,2946,1609,1194,735.7,718.5,1,11,12,0,0.3,0.3
09/01/2015,2544,2953,1616,1194,735.9,718.6,0,7,7,0,0.2,0.2
10/01/2015,2546,2963,1626,1194,736.3,719,2,10,10,0,0.4,0.4
11/01/2015,2546,2972,1635,1194,736.6,719.3,0,9,9,0,0.3,0.3
12/01/2015,2547,2981,1643,1194,737.1,719.8,1,9,8,0,0.5,0.5
13/01/2015,2547,2996,1657,1194,737.3,720,0,15,14,0,0.2,0.2
14/01/2015,2548,3004,1666,1194,737.7,720.4,1,8,9,0,0.4,0.4
15/01/2015,2549,3013,1674,1194,738,720.7,1,9,8,0,0.3,0.3
16/01/2015,2550,3023,1684,1194,738.3,721,1,10,10,0,0.3,0.3
17/01/2015,2551,3032,1692,1194,738.6,721.3,1,9,8,0,0.3,0.3
18/01/2015,2552,3041,1701,1194,739,721.7,1,9,9,0,0.4,0.4
19/01/2015,2553,3049,1709,1194,739.4,722.1,1,8,8,0,0.4,0.4
20/01/2015,2554,3057,1718,1194,739.8,722.5,1,8,9,0,0.5,0.5
21/01/2015,2555,3066,1726,1194,740.3,723,1,9,8,0,0.4,0.4
22/01/2015,2556,3074,1734,1194,740.5,723.2,1,8,8,0,0.2,0.2
23/01/2015,2558,3085,1743,1194,741.3,723.9,2,11,9,0,0.8,0.8
24/01/2015,2560,3098,1755,1194,741.9,724.6,2,13,12,0,0.7,0.7
25/01/2015,2561,3106,1761,1195,742.5,725.2,1,8,6,1,0.5,0.5
26/01/2015,2563,3112,1767,1195,743.6,726.2,2,6,6,0,1.1,1.1
27/01/2015,2564,3122,1777,1195,743.9,726.5,1,10,10,0,0.3,0.3
28/01/2015,2567,3134,1787,1195,744.6,727.3,3,12,10,0,0.8,0.7
29/01/2015,2568,3147,1799,1195,744.8,727.4,1,13,12,0,0.1,0.1
30/01/2015,2570,3156,1807,1195,745.4,728,2,9,8,0,0.6,0.6
31/01/2015,2571,3166,1815,1195,745.9,728.6,1,10,8,0,0.5,0.6
01/02/2015,2572,3176,1825,1195,746.1,728.8,1,10,10,0,0.2,0.2
02/02/2015,2573,3184,1833,1195,746.6,729.2,1,8,8,0,0.4,0.5
03/02/2015,2575,3199,1847,1195,747,729.7,2,15,14,0,0.5,0.5
04/02/2015,2577,3207,1855,1195,748,730.6,2,8,8,0,0.9,0.9
05/02/2015,2579,3216,1862,1195,748.5,731.1,2,9,7,0,0.5,0.5
06/02/2015,2580,3224,1870,1195,749.1,731.8,1,8,8,0,0.6,0.6
07/02/2015,2583,3233,1877,1196,750.3,732.9,3,9,7,1,1.2,1.2
08/02/2015,2585,3244,1887,1196,750.7,733.3,2,11,10,0,0.4,0.4
09/02/2015,2588,3259,1900,1196,752,734.6,3,15,13,0,1.3,1.3
10/02/2015,2591,3272,1911,1196,752.6,735.2,3,13,11,0,0.6,0.6
11/02/2015,2591,3283,1921,1196,753.1,735.7,0,11,10,0,0.5,0.5
12/02/2015,2591,3292,1931,1196,753.2,735.8,0,9,10,0,0,0
13/02/2015,2591,3299,1938,1196,753.3,735.8,0,7,7,0,0.1,0.1
14/02/2015,2592,3310,1949,1196,753.7,736.3,1,11,11,0,0.4,0.4
15/02/2015,2593,3314,1952,1196,754.6,737.2,1,4,3,0,0.9,0.9
16/02/2015,2594,3317,1954,1196,755.8,738.4,1,3,2,0,1.2,1.2
17/02/2015,2594,3329,1966,1196,756,738.5,0,12,12,0,0.1,0.1
18/02/2015,2599,3337,1972,1198,757.9,740.4,5,8,6,2,1.9,1.9
19/02/2015,2604,3348,1980,1199,759.9,742.4,5,11,8,1,2,1.9
20/02/2015,2606,3353,1984,1199,760.8,743.3,2,5,4,0,1,0.9
21/02/2015,2608,3364,1994,1199,761.9,744.3,2,11,10,0,1,1
22/02/2015,2613,3373,2000,1200,764.2,746.6,5,9,6,1,2.3,2.2
23/02/2015,2616,3383,2009,1200,765.5,747.9,3,10,9,0,1.3,1.3
24/02/2015,2620,3398,2019,1200,767,749.4,4,15,10,0,1.5,1.5
25/02/2015,2626,3409,2027,1201,769,751.3,6,11,8,1,2,1.9
26/02/2015,2629,3419,2035,1201,770.3,752.6,3,10,8,0,1.3,1.3
27/02/2015,2630,3426,2041,1201,770.8,753.1,1,7,6,0,0.5,0.5
28/02/2015,2637,3438,2051,1205,772.3,754.5,7,12,10,4,1.5,1.5
01/03/2015,2638,3445,2057,1205,773.1,755.4,1,7,6,0,0.9,0.9
02/03/2015,2645,3453,2063,1208,775.8,757.9,7,8,6,3,2.6,2.5
03/03/2015,2653,3465,2070,1212,777.6,759.6,8,12,7,4,1.8,1.7
04/03/2015,2660,3476,2077,1214,779.2,761.2,7,11,7,2,1.7,1.6
05/03/2015,2666,3486,2084,1216,781,762.9,6,10,7,2,1.7,1.6
06/03/2015,2673,3498,2091,1217,783.8,765.7,7,12,7,1,2.8,2.8
07/03/2015,2682,3509,2098,1221,785.7,767.6,9,11,7,4,2,1.9
08/03/2015,2693,3518,2102,1226,787.8,769.6,11,9,4,5,2,2
09/03/2015,2697,3530,2111,1227,789.7,771.5,4,12,9,1,1.9,1.9
10/03/2015,2698,3536,2117,1227,790.5,772.2,1,6,6,0,0.8,0.8
11/03/2015,2708,3550,2123,1229,792.7,774.4,10,14,6,2,2.2,2.1
12/03/2015,2718,3560,2129,1234,794.5,776.1,10,10,6,5,1.8,1.8
13/03/2015,2728,3579,2141,1237,797.1,778.7,10,19,12,3,2.6,2.6
14/03/2015,2734,3591,2148,1237,799,780.5,6,12,7,0,1.9,1.8
15/03/2015,2741,3603,2156,1240,800.7,782.2,7,12,8,3,1.7,1.7
16/03/2015,2741,3608,2162,1240,800.9,782.4,0,5,6,0,0.3,0.3
17/03/2015,2743,3620,2172,1240,801.9,783.5,2,12,10,0,1,1
18/03/2015,2749,3629,2177,1241,804.1,785.5,6,9,5,1,2.1,2.1
19/03/2015,2761,3640,2182,1248,806.1,787.6,12,11,5,7,2.1,2.1
20/03/2015,2763,3649,2191,1248,806.7,788.1,2,9,9,0,0.5,0.5
21/03/2015,2770,3658,2196,1250,808.3,789.7,7,9,5,2,1.6,1.5
22/03/2015,2773,3666,2202,1250,809.3,790.7,3,8,6,0,1.1,1.1
23/03/2015,2788,3678,2207,1258,811.4,792.7,15,12,5,8,2.1,2
24/03/2015,2798,3689,2213,1262,813.2,794.5,10,11,6,4,1.8,1.8
25/03/2015,2808,3698,2218,1267,815.5,796.7,10,9,5,5,2.3,2.2